Location: *
(45.0500°N, 12.0500°E)
Time: 09:23:04
(UTC+00:00)

Cosmos 1461 - Visible Passes

Search period start: 13 August 2020 00:00
Search period end: 23 August 2020 00:00
Orbit: 502 x 664 km, 65.0° (Epoch: 12 August)

Date Brightness Start Highest point End Pass type
(mag) Time Alt. Az. Time Alt. Az. Time Alt. Az.
13 Aug 3.6 00:44:29 56° N 00:44:29 56° N 00:48:15 10° NNE visible
13 Aug 5.4 02:20:59 10° WNW 02:23:39 15° NNW 02:26:21 10° N visible
13 Aug 5.7 23:13:37 12° ENE 23:13:37 12° ENE 23:14:11 10° ENE visible
14 Aug 3.9 00:50:00 45° NNW 00:50:00 45° NNW 00:53:56 10° NNE visible
14 Aug 5.6 02:28:06 10° NW 02:29:47 12° NNW 02:31:30 10° N visible
14 Aug 5.4 23:19:07 17° ENE 23:19:07 17° ENE 23:20:23 10° NE visible
15 Aug 4.4 00:55:29 32° NW 00:55:29 32° NW 00:59:33 10° NNE visible
15 Aug 5.1 23:24:34 23° NE 23:24:34 23° NE 23:26:22 10° NE visible
16 Aug 4.8 01:00:56 23° NW 01:01:22 23° NW 01:05:05 10° NNE visible
16 Aug 4.9 23:29:59 28° NE 23:29:59 28° NE 23:32:12 10° NE visible
17 Aug 5.2 01:06:21 16° NW 01:07:24 18° NW 01:10:32 10° N visible
17 Aug 4.8 23:35:23 31° NNE 23:35:23 31° NNE 23:37:56 10° NNE visible
18 Aug 5.6 01:11:44 11° NW 01:13:31 13° NNW 01:15:50 10° N visible
18 Aug 4.8 23:40:44 30° N 23:40:44 30° N 23:43:35 10° NNE visible
19 Aug 5.9 01:18:41 10° NW 01:19:41 11° NNW 01:20:40 10° NNW visible
19 Aug 5.7 22:09:42 13° NE 22:09:42 13° NE 22:10:13 10° NE visible
19 Aug 5.0 23:46:03 26° NNW 23:46:03 26° NNW 23:49:09 10° NNE visible
20 Aug 5.4 22:14:58 17° NE 22:14:58 17° NE 22:16:07 10° NE visible
20 Aug 5.3 23:51:19 20° NW 23:51:19 20° NW 23:54:39 10° NNE visible
21 Aug 5.2 22:20:11 22° NNE 22:20:11 22° NNE 22:21:53 10° NNE visible
21 Aug 5.6 23:56:32 15° NW 23:57:15 15° NNW 00:00:01 10° N visible
22 Aug 5.1 22:25:20 26° NNE 22:25:20 26° NNE 22:27:34 10° NNE visible
